Erzurum, Turkey

3:00 PM +03 on December 13, 2017 (GMT +0300)
Erzurum

Weather History for LTCE - November, 2011

Change the Weather History Date:

Friday, November 11, 2011

  Actual Average Record
Temperature  
Mean Temperature 29 °F -  
Max Temperature 32 °F 39 °F 59 °F (2010)
Min Temperature 26 °F 24 °F 17 °F (1998)
Degree Days  
Heating Degree Days 36    
Moisture  
Dew Point 29 °F    
Average Humidity 96    
Maximum Humidity 100    
Minimum Humidity 87    
Precipitation  
Precipitation 0.01 in 0.04 in - ()
Sea Level Pressure  
Sea Level Pressure 30.01 in    
Wind  
Wind Speed 8 mph ()    
Max Wind Speed 15 mph    
Max Gust Speed -    
Visibility 4.8 miles    
Events Snow    
Averages and records for this station are not official NWS values.
T = Trace of Precipitation, MM = Missing Value Source: Averaged Metar Reports

Daily Weather History Graph

Daily Weather History Graph

Search for Another Location

Airport or City:

Trip Planner

Search our weather history database for the weather conditions in past years. The results will help you decide how hot, cold, wet, or windy it might be!

Date:

Astronomy

Nov. 11, 2011 Rise Set
Actual Time 5:55 AM EET 4:03 PM EET
Civil Twilight 5:26 AM EET 4:31 PM EET
Nautical Twilight 4:53 AM EET 5:04 PM EET
Astronomical Twilight 4:22 AM EET 5:35 PM EET
Moon 4:16 PM EET (11/11) 6:23 AM EET (11/11)
Length of Visible Light 11h 05m
Length of Day
10h 08m
Full, 100% of the Moon is Illuminated
Nov 11
Full
Nov 18
Last Quarter
Nov 25
New
Dec 2
First Quarter
Dec 10
Full

Hourly Weather History & Observations

Time (EET) Temp. Windchill Dew Point Humidity Pressure Visibility Wind Dir Wind Speed Gust Speed Precip Events Conditions
12:20 AM 28.4 °F 20.4 °F 28.4 °F 100% 30.01 in 2.5 mi WSW 8.1 mph - N/A Snow Light Snow
12:50 AM 28.4 °F 23.3 °F 28.4 °F 100% 30.01 in 2.5 mi WSW 4.6 mph - N/A Snow Light Snow
1:20 AM 28.4 °F 23.3 °F 28.4 °F 100% 30.01 in 2.5 mi WSW 4.6 mph - N/A Snow Light Snow
1:50 AM 28.4 °F 21.2 °F 28.4 °F 100% 30.01 in 2.5 mi West 6.9 mph - N/A Snow Light Snow
2:00 AM 29 °F - 29 °F 99%  in 6 mi West 6.9 mph - - Snow Snow
2:20 AM 28.4 °F 21.2 °F 28.4 °F 100% 30.01 in 3.7 mi West 6.9 mph - N/A Snow Light Snow
2:50 AM 28.4 °F 19.7 °F 28.4 °F 100% 30.01 in 3.7 mi West 9.2 mph - N/A Snow Light Snow
3:20 AM 28.4 °F 21.2 °F 28.4 °F 100% 30.01 in 3.7 mi West 6.9 mph - N/A Snow Light Snow
3:50 AM 28.4 °F 22.2 °F 28.4 °F 100% 30.01 in 3.7 mi West 5.8 mph - N/A Snow Light Snow
4:20 AM 28.4 °F 20.4 °F 28.4 °F 100% 30.01 in 3.7 mi West 8.1 mph - N/A Snow Light Snow
4:50 AM 28.4 °F 21.2 °F 28.4 °F 100% 30.01 in 3.7 mi WSW 6.9 mph - N/A Snow Light Snow
5:20 AM 28.4 °F 20.4 °F 28.4 °F 100% 30.01 in 3.7 mi West 8.1 mph - N/A Snow Light Snow
5:50 AM 28.4 °F 19.1 °F 28.4 °F 100% 30.01 in 1.1 mi West 10.4 mph - N/A Snow Light Snow
6:20 AM 28.4 °F 19.7 °F 28.4 °F 100% 30.01 in 2.2 mi West 9.2 mph - N/A Snow Light Snow
6:50 AM 28.4 °F 19.7 °F 28.4 °F 100% 30.01 in - West 9.2 mph - N/A Snow Light Snow
7:20 AM 30.2 °F 21.3 °F 28.4 °F 93% 30.01 in 2.5 mi West 10.4 mph - N/A Snow Light Snow
7:50 AM 30.2 °F 21.9 °F 30.2 °F 100% 30.01 in - WSW 9.2 mph - N/A Snow Light Snow
8:00 AM 30 °F - 30 °F 98%  in 3 mi WSW 9.2 mph - - Snow Light Snow
8:20 AM 32.0 °F 23.6 °F 30.2 °F 93% 30.01 in - West 10.4 mph - N/A   Overcast
8:50 AM 32.0 °F 23.6 °F 30.2 °F 93% 30.01 in 6.2 mi West 10.4 mph - N/A   Mostly Cloudy
9:20 AM 32.0 °F 24.2 °F 32.0 °F 100% 30.01 in 6.2 mi West 9.2 mph - N/A   Mostly Cloudy
9:50 AM 32.0 °F 23.0 °F 28.4 °F 87% 30.04 in 6.2 mi WNW 11.5 mph - N/A Snow Light Snow
10:20 AM 32.0 °F 24.2 °F 30.2 °F 93% 30.04 in 2.5 mi West 9.2 mph - N/A Snow Light Snow
10:50 AM 32.0 °F 24.8 °F 30.2 °F 93% 30.01 in 3.7 mi West 8.1 mph - N/A Snow Light Snow
11:20 AM 32.0 °F 23.6 °F 30.2 °F 93% 30.01 in 4.3 mi West 10.4 mph - N/A Snow Light Snow
11:50 AM 32.0 °F 23.6 °F 30.2 °F 93% 30.01 in 5.0 mi West 10.4 mph - N/A   Mostly Cloudy
12:20 PM 32.0 °F 23.0 °F 30.2 °F 93% 29.98 in 6.2 mi WNW 11.5 mph - N/A   Mostly Cloudy
12:50 PM 32.0 °F 23.6 °F 30.2 °F 93% 29.98 in 6.2 mi West 10.4 mph - N/A   Mostly Cloudy
1:20 PM 32.0 °F 22.1 °F 30.2 °F 93% 29.98 in 6.2 mi West 13.8 mph - N/A   Mostly Cloudy
1:50 PM 32.0 °F 22.1 °F 30.2 °F 93% 29.98 in 6.2 mi West 13.8 mph - N/A Snow Light Snow
2:00 PM 32 °F - 30 °F 88%  in 12 mi West 12.7 mph - - Snow Light Snow
2:20 PM 30.2 °F 21.3 °F 30.2 °F 100% 30.01 in 2.5 mi West 10.4 mph - N/A Snow Light Snow
2:50 PM 30.2 °F 21.3 °F 28.4 °F 93% 30.01 in 2.5 mi West 10.4 mph - N/A Snow Light Snow
3:20 PM 30.2 °F 20.8 °F 28.4 °F 93% 30.01 in 2.5 mi West 11.5 mph - N/A Snow Light Snow
3:50 PM 30.2 °F 22.6 °F 28.4 °F 93% 30.01 in 2.5 mi SW 8.1 mph - N/A Snow Light Snow
4:20 PM 30.2 °F 25.4 °F 28.4 °F 93% 30.01 in 6.2 mi SW 4.6 mph - N/A Snow Light Snow
4:50 PM 30.2 °F 26.7 °F 28.4 °F 93% 30.01 in 4.3 mi SSW 3.5 mph - N/A Snow Light Snow
5:20 PM 30.2 °F 26.7 °F 28.4 °F 93% 30.01 in 6.2 mi SW 3.5 mph - N/A   Mostly Cloudy
5:50 PM 30.2 °F 21.9 °F 28.4 °F 93% 29.98 in 6.2 mi WSW 9.2 mph - N/A Snow Light Snow
6:20 PM 30.2 °F 21.3 °F 28.4 °F 93% 29.98 in 6.2 mi WSW 10.4 mph - N/A   Mostly Cloudy
6:50 PM 30.2 °F 19.3 °F 28.4 °F 93% 29.98 in 6.2 mi WSW 15.0 mph - N/A Snow Light Snow
7:20 PM 30.2 °F 20.2 °F 28.4 °F 93% 29.98 in 6.2 mi WSW 12.7 mph - N/A Snow Light Snow
7:50 PM 30.2 °F 19.8 °F 28.4 °F 93% 30.01 in 6.2 mi West 13.8 mph - N/A Snow Light Snow
8:00 PM 29 °F - 29 °F 100%  in 12 mi West 13.8 mph - - Snow Light Snow
8:20 PM 28.4 °F 19.7 °F 28.4 °F 100% 30.01 in 6.2 mi West 9.2 mph - N/A Snow Light Snow
8:50 PM 28.4 °F 22.2 °F 28.4 °F 100% 30.01 in 6.2 mi WSW 5.8 mph - N/A Snow Light Snow
9:20 PM 28.4 °F 21.2 °F 28.4 °F 100% 30.01 in 6.2 mi WSW 6.9 mph - N/A Snow Light Snow
9:50 PM 28.4 °F 17.5 °F 28.4 °F 100% 29.98 in 6.2 mi West 13.8 mph - N/A Snow Light Snow
10:20 PM 28.4 °F 19.1 °F 28.4 °F 100% 30.01 in 3.7 mi WSW 10.4 mph - N/A Snow Light Snow
10:50 PM 26.6 °F 15.2 °F 24.8 °F 93% 30.01 in 4.3 mi WSW 13.8 mph - N/A Snow Light Snow
11:20 PM 26.6 °F 19.1 °F 26.6 °F 100% 30.01 in 6.2 mi SW 6.9 mph - N/A Snow Light Snow
11:50 PM 26.6 °F 17.5 °F 24.8 °F 93% 30.01 in 6.2 mi SSW 9.2 mph - N/A Snow Light Snow